Flag for U.S.A. Weather past 2 weeks in Green Bay, Wisconsin, U.S.A.

Now
52 °F

Overcast.


Feels Like: 49 °F
Forecast: 43 / 53 °F
Wind: 9 mph from Northwest

Location: Austin Straubel International Airport

Current Time: Oct 20, 2014 at 1:09:04 PM

Latest Report: Oct 20, 2014 at 11:53 AM


Visibility: 10 mi

Pressure: 29.88 "Hg

Humidity: 77%

Dew point: 45 °F

Location of Green BayLocation

Historic Weather in Green Bay — Graph

°F

Green Bay temperature yesterday

Maximum temperature yesterday: 55 °F (at 2:53 PM)
Minimum temperature yesterday: 31 °F (at 5:53 AM)
Average temperature yesterday: 44 °F

Past Weeks' High & Low Weather Summary

 TemperatureHumidityPressure
High62 °F (Oct 7, 1:53 PM)100% (Oct 13, 7:53 PM)30.27 "Hg (Oct 13, 7:53 PM)
Low31 °F (Oct 10, 6:53 AM)33% (Oct 10, 2:53 PM)29.47 "Hg (Oct 17, 4:53 AM)
Average48 °F76%29.86 "Hg
* Reported Oct 5 11:53 AM — Oct 20 11:53 AM, Green Bay, Weather by CustomWeather, © 2014

Note: Actual official high and low records may vary slightly from our data, if they occured in-between our weather recording intervals... More about our weather records

Advertising

Green Bay weather history for previous 24 hours

 ConditionsComfort  
Time TempWeatherWind HumidityBarometerVisibility
11:53 AM
Oct 20
52 °FOvercast.9 mph77%29.88 "Hg10 mi
10:53 AM52 °FOvercast.9 mph77%29.87 "Hg10 mi
9:53 AM51 °FOvercast.10 mph77%29.86 "Hg10 mi
8:53 AM50 °FOvercast.9 mph80%29.85 "Hg10 mi
7:53 AM48 °FOvercast.8 mph86%29.83 "Hg10 mi
6:53 AM45 °FOvercast.7 mph93%29.81 "Hg10 mi
5:53 AM41 °FOvercast.No wind96%29.79 "Hg9 mi
4:53 AM40 °FClear.3 mph97%29.77 "Hg10 mi
3:53 AM44 °FClear.3 mph93%29.77 "Hg10 mi
2:53 AM45 °FClear.3 mph90%29.76 "Hg10 mi
1:53 AM44 °FClear.No wind93%29.77 "Hg10 mi
12:53 AM47 °FClear.No wind86%29.77 "Hg10 mi
11:53 PM
Oct 19
48 °FPassing clouds.7 mph86%29.77 "Hg10 mi
9:53 PM50 °FPassing clouds.6 mph80%29.80 "Hg10 mi
8:53 PM51 °FPassing clouds.7 mph77%29.83 "Hg10 mi
7:53 PM52 °FPassing clouds.10 mph72%29.83 "Hg10 mi
6:53 PM52 °FSunny.8 mph72%29.85 "Hg10 mi
5:53 PM54 °FPartly sunny.13 mph67%29.85 "Hg10 mi
4:53 PM54 °FBroken clouds.15 mph67%29.85 "Hg10 mi
3:53 PM55 °FPartly sunny.18 mph62%29.89 "Hg10 mi
2:53 PM55 °FScattered clouds.14 mph64%29.92 "Hg10 mi
1:53 PM53 °FPassing clouds.13 mph66%29.97 "Hg10 mi
Weather by CustomWeather, © 2014

See weather overviewHow to use our weather pages